SCP
0 0 0 0 0 0 0 0 0 0 0 0 0 0 0 0 0 0 0 0 0 0 0 0 0 0 0 0 0 0 0 0 0 0 0 0 0 0 0 0 0 0 0 0
0 0 0 0 0 0 0 0 0 0 0 0 0 0 0 0 0 0 0 0 0 0 0 0 0 0 0 0 0 0 0 0 0 0 0 0 0 0 0 0 0 0 0 0
0 0 0 0 0 0 0 0 0 0 0 0 0 0 0 0 0 0 0 0 0 0 0 0 0 0 0 0 0 0 0 0 0 0 0 0 0 0 0 0 0 0 0 0
0 0 0 0 0 0 0 0 0 0 0 0 0 0 0 0 0 0 0 0 0 0 0 0 0 0 0 0 0 0 0 0 0 0 0 0 0 0 0 0 0 0 0 0
0 0 0 0 0 0 0 0 0 0 0 0 0 0 0 0 0 0 0 0 0 0 0 0 0 0 0 0 0 0 0 0 0 0 0 0 0 0 0 0 0 0 0 0
0 0 0 0 0 0 0 0 0 0 0 0 0 0 0 0 0 0 0 0 0 0 0 0 0 0 0 0 0 0 0 0 0 0 0 0 0 0 0 0 0 0 0 0
0 0 0 0 0 0 0 0 0 0 0 0 0 0 0 0 0 0 0 0 0 0 0 0 0 0 0 0 0 0 0 0 0 0 0 0 0 0 0 0 0 0 0 0
0 0 0 0 0 0 0 0 0 0 0 0 0 0 0 0 0 0 0 0 0 0 0 0 0 0 0 0 0 0 0 0 0 0 0 0 0 0 0 0 0 0 0 0
0 0 0 0 0 0 0 0 0 0 0 0 0 0 0 0 0 0 0 0 0 0 0 0 0 0 0 0 0 0 0 0 0 0 0 0 0 0 0 0 0 0 0 0
0 0 0 0 0 0 0 0 0 0 0 0 0 0 0 0 0 0 0 0 0 0 0 0 0 0 0 0 0 0 0 0 0 0 0 0 0 0 0 0 0 0 0 0
0 0 0 0 0 0 0 0 0 0 0 0 0 0 0 0 0 0 0 0 0 0 0 0 0 0 0 0 0 0 0 0 0 0 0 0 0 0 0 0 0 0 0 0
0 0 0 0 0 0 0 0 0 0 0 0 0 0 0 0 0 0 0 0 0 0 0 0 0 0 0 0 0 0 0 0 0 0 0 0 0 0 0 0 0 0 0 0
0 0 0 0 0 0 0 0 0 0 0 0 0 0 0 0 0 0 0 0 0 0 0 0 0 0 0 0 0 0 0 0 0 0 0 0 0 0 0 0 0 0 0 0
0 0 0 0 0 0 0 0 0 0 0 0 0 0 0 0 0 0 0 0 0 0 0 0 0 0 0 0 0 0 0 0 0 0 0 0 0 0 0 0 0 0 0 0
0 0 0 0 0 0 0 0 0 0 0 0 0 0 0 0 0 0 0 0 0 0 0 0 0 0 0 0 0 0 0 0 0 0 0 0 0 0 0 0 0 0 0 0
0 0 0 0 0 0 0 0 0 0 0 0 0 0 0 0 0 0 0 0 0 0 0 0 0 0 0 0 0 0 0 0 0 0 0 0 0 0 0 0 0 0 0 0
0 0 0 0 0 0 0 0 0 0 0 0 0 0 0 0 0 0 0 0 0 0 0 0 0 0 0 0 0 0 0 0 0 0 0 0 0 0 0 0 0 0 0 0
0 0 0 0 0 0 0 0 0 0 0 0 0 0 0 0 0 0 0 0 0 0 0 0 0 0 0 0 0 0 0 0 0 0 0 0 0 0 0 0 0 0 0 0
0 0 0 0 0 0 0 0 0 0 0 0 0 0 0 0 0 0 0 0 0 0 0 0 0 0 0 0 0 0 0 0 0 0 0 0 0 0 0 0 0 0 0 0
0 0 0 0 0 0 0 0 0 0 0 0 0 0 0 0 0 0 0 0 0 0 0 0 0 0 0 0 0 0 0 0 0 0 0 0 0 0 0 0 0 0 0 0
0 0 0 0 0 0 0 0 0 0 0 0 0 0 0 0 0 0 0 0 0 0 0 0 0 0 0 0 0 0 0 0 0 0 0 0 0 0 0 0 0 0 0 0
0 0 0 0 0 0 0 0 0 0 0 0 0 0 0 0 0 0 0 0 0 0 0 0 0 0 0 0 0 0 0 0 0 0 0 0 0 0 0 0 0 0 0 0
0 0 0 0 0 0 0 0 0 0 0 0 0 0 0 0 0 0 0 0 0 0 0 0 0 0 0 0 0 0 0 0 0 0 0 0 0 0 0 0 0 0 0 0
0 0 0 0 0 0 0 0 0 0 0 0 0 0 0 0 0 0 0 0 0 0 0 0 0 0 0 0 0 0 0 0 0 0 0 0 0 0 0 0 0 0 0 0
0 0 0 0 0 0 0 0 0 0 0 0 0 0 0 0 0 0 0 0 0 0 0 0 0 0 0 0 0 0 0 0 0 0 0 0 0 0 0 0 0 0 0 0
0 0 0 0 0 0 0 0 0 0 0 0 0 0 0 0 0 0 0 0 0 0 0 0 0 0 0 0 0 0 0 0 0 0 0 0 0 0 0 0 0 0 0 0
Wind_Speed
18 16 21 23 24 21 18 19 17 15 8 7 13 16 15 14 9 9 8 9 9 8 7 7 8 8 10 11 12 12 11 10 8 7 8 8 9 9 9 9 11 11 10 10
15 23 24 21 22 19 18 18 17 10 5 6 11 16 15 12 8 7 10 12 12 11 9 9 10 10 11 12 13 13 13 12 11 9 9 9 9 9 8 7 10 11 11 10
22 18 20 21 22 21 18 18 16 9 5 6 8 12 8 5 2 3 9 12 13 12 12 11 11 11 11 12 12 12 13 13 13 11 9 8 7 6 6 7 7 9 10 9
22 13 19 23 24 23 18 12 10 7 4 4 3 6 6 6 5 7 11 12 13 12 12 11 11 11 11 10 10 13 13 13 12 10 10 10 8 7 6 5 5 7 9 9
15 14 18 22 25 22 13 11 7 3 3 6 7 8 7 4 7 10 13 13 13 12 12 12 11 11 10 10 9 11 12 12 12 11 11 10 9 7 5 5 6 6 6 8
12 11 15 18 19 16 13 11 7 2 3 8 8 9 6 3 3 10 15 14 13 13 12 12 11 11 10 9 9 9 11 12 11 11 11 10 10 7 6 6 6 5 4 5
11 11 10 15 15 13 14 12 6 6 8 7 5 7 7 1 2 8 17 17 15 14 13 13 13 11 10 9 9 9 10 11 10 10 10 9 8 7 7 6 6 6 5 5
10 8 12 16 14 12 15 14 8 7 8 6 6 8 3 3 0 4 13 17 15 14 13 12 12 11 10 9 8 8 9 9 9 8 8 8 7 5 5 6 6 6 5 5
11 4 6 11 9 13 14 10 3 2 2 4 6 5 3 4 2 5 13 17 16 15 13 13 12 11 10 9 8 8 8 8 8 7 7 7 7 6 5 5 5 4 5 5
8 5 7 8 8 3 8 9 6 6 6 6 4 4 2 4 1 5 13 18 17 15 13 13 11 10 9 8 8 7 7 7 7 6 6 5 6 5 5 4 5 5 6 7
6 6 6 8 10 13 11 10 8 7 4 5 5 4 2 3 3 4 11 17 17 16 15 13 11 11 10 9 8 8 7 7 6 6 5 5 5 4 4 5 6 6 6 7
6 5 7 5 1 10 11 12 11 8 7 5 3 4 3 3 4 4 10 14 15 15 14 13 12 11 10 10 8 7 7 6 6 5 5 5 4 3 4 5 6 6 7 7
8 7 10 7 5 7 11 14 15 8 5 7 7 4 4 1 2 4 10 14 14 14 13 12 12 11 11 10 8 7 7 6 5 4 4 3 3 4 5 6 6 7 7 8
6 7 10 13 10 13 15 16 18 15 10 10 11 8 7 5 6 7 10 13 14 13 13 13 12 12 10 9 9 8 7 6 4 3 2 2 3 4 5 6 6 7 8 8
7 5 6 5 7 14 16 19 19 21 19 14 12 15 13 8 8 9 11 12 12 12 12 14 14 12 11 10 9 7 6 5 4 2 1 1 3 4 5 6 7 7 8 8
8 3 4 4 5 11 13 20 22 23 22 20 16 15 7 5 8 9 10 10 10 11 12 13 13 13 12 11 9 7 6 5 4 2 1 2 4 5 6 7 8 8 9 9
10 5 5 4 5 6 11 18 21 20 20 20 22 19 8 9 11 11 9 8 8 8 10 12 12 12 11 10 9 8 6 5 4 2 1 3 4 6 7 8 8 9 9 10
12 5 2 4 4 8 4 1 14 19 19 18 12 4 13 11 10 8 6 7 6 5 7 9 10 11 10 9 8 7 6 4 3 1 1 3 5 6 8 9 9 10 10 11
5 6 4 3 5 8 3 4 7 11 12 12 13 9 12 13 10 6 5 4 4 3 4 7 9 10 10 9 8 7 5 4 2 1 2 4 6 7 9 10 11 11 11 12
5 7 5 4 6 6 1 5 5 5 7 7 11 14 15 14 10 7 5 5 5 6 6 9 10 10 10 8 7 6 5 3 1 2 4 5 6 8 10 11 12 11 12 13
9 7 10 8 5 6 3 6 8 7 2 11 12 14 13 7 4 9 7 6 6 7 9 10 10 9 8 8 6 5 3 1 1 3 5 6 7 8 10 11 11 12 12 13
14 10 10 7 7 8 6 9 9 2 8 12 13 10 9 9 8 8 7 7 8 8 9 9 9 8 7 6 5 4 2 0 2 4 6 7 8 8 8 10 11 11 12 14
8 6 6 7 5 2 0 2 2 8 12 10 9 9 10 9 7 6 6 6 7 8 8 7 8 8 7 5 4 3 1 1 4 5 7 8 9 8 9 10 11 11 11 10
4 2 5 4 2 1 2 5 6 9 9 9 10 9 8 7 7 6 5 5 6 7 7 7 8 7 6 5 3 2 1 2 4 6 7 8 8 9 9 8 8 9 10 10
7 7 5 4 4 6 4 6 9 10 11 11 9 6 6 7 6 5 4 5 5 6 7 7 7 7 6 6 4 3 2 3 5 7 8 8 8 9 9 9 8 10 9 11
7 8 8 7 11 8 10 10 10 11 10 9 8 6 4 3 3 2 3 3 5 7 7 7 7 7 6 6 4 3 2 4 6 7 7 7 7 8 9 10 9 10 11 16
Wind_Direction
193 208 212 204 207 209 200 207 207 210 196 221 248 262 274 283 257 228 190 170 144 118 100 89 81 78 75 68 65 65 68 76 89 96 97 94 86 79 71 62 57 54 50 46
190 217 216 205 204 206 204 204 206 199 181 239 267 273 274 275 256 224 189 170 152 138 123 101 91 83 77 74 73 72 67 68 70 75 78 84 87 77 73 65 55 49 45 39
201 209 210 204 197 192 196 198 193 175 164 222 274 271 242 193 173 190 177 164 154 146 134 119 101 90 83 75 73 77 76 75 77 86 95 99 93 86 68 57 51 43 41 36
209 219 202 194 193 192 191 188 172 164 223 218 278 289 249 208 190 176 168 164 156 147 137 125 113 98 88 82 78 79 80 78 78 83 87 85 78 72 57 46 45 47 39 32
203 226 208 192 193 194 187 165 170 173 252 271 240 260 267 195 214 186 175 167 160 151 141 130 117 108 99 92 86 84 82 78 75 75 79 82 80 77 67 55 44 37 36 29
210 222 215 195 185 177 141 127 101 101 232 248 228 232 268 198 197 174 174 172 164 154 147 135 126 120 110 103 93 89 87 82 78 77 76 78 81 77 68 51 35 25 25 19
224 234 210 182 157 166 165 147 147 180 207 228 172 227 254 38 189 180 179 176 169 161 158 150 143 135 126 116 105 103 99 92 87 83 81 81 81 74 59 40 29 20 16 13
203 204 183 173 169 169 177 177 186 184 190 173 180 232 241 46 112 200 187 175 168 167 165 158 148 141 135 127 121 117 107 102 97 92 88 81 72 61 52 38 27 21 9 2
196 209 161 152 147 159 167 187 201 131 148 203 195 230 255 146 185 195 186 176 175 171 168 160 152 149 143 135 129 123 118 111 103 96 91 80 69 61 54 42 30 17 4 347
182 166 144 127 117 97 157 148 163 197 195 208 197 218 179 160 185 185 189 183 175 169 168 162 158 152 144 136 131 127 122 116 107 95 85 78 65 52 39 31 25 11 357 347
206 150 134 154 182 167 155 169 173 187 241 227 187 154 113 302 303 217 191 184 172 172 172 167 160 151 145 143 143 138 134 130 115 102 92 79 62 38 25 22 12 358 346 341
217 164 138 146 75 191 186 183 175 182 195 225 227 134 97 293 290 220 178 173 171 172 171 167 158 152 154 155 153 148 147 137 120 105 87 70 51 23 14 13 0 346 340 338
191 167 143 152 166 183 198 194 197 198 189 199 212 185 117 117 130 157 164 167 169 169 169 166 163 164 163 162 159 155 150 139 125 108 83 57 25 7 2 358 347 340 336 330
212 203 204 194 187 179 193 193 200 202 214 215 226 229 182 169 159 158 165 171 171 171 172 172 173 172 168 166 161 158 151 145 132 114 88 30 5 356 350 342 335 332 328 322
230 225 207 198 162 177 194 196 198 209 220 229 230 233 234 210 182 169 166 168 171 172 176 180 181 176 170 166 163 159 154 150 147 149 150 353 346 347 338 331 327 322 317 312
221 213 159 145 170 194 205 206 206 213 220 231 245 246 248 169 166 167 167 167 174 179 183 186 185 178 173 167 163 160 159 156 170 184 231 332 334 336 329 322 316 311 307 306
193 192 185 150 142 172 224 213 209 214 222 226 239 248 173 173 177 171 160 157 161 173 183 186 184 178 171 165 162 163 160 166 179 189 281 323 332 325 317 310 305 306 308 309
189 173 111 114 145 222 219 215 213 220 228 228 240 245 180 171 139 122 124 133 134 156 179 182 174 166 159 152 154 153 160 169 177 209 303 330 321 311 307 305 309 314 314 310
161 126 111 149 218 252 235 172 175 199 228 220 217 173 145 132 125 113 83 87 98 125 156 160 157 153 149 151 153 157 163 171 191 280 324 321 311 307 309 314 319 318 312 308
107 121 146 203 226 241 131 136 157 165 231 178 178 157 149 159 171 145 116 104 102 109 124 133 139 143 146 148 156 170 173 181 225 315 314 309 305 308 314 316 314 311 308 307
159 172 199 209 238 277 111 138 155 192 200 143 153 149 152 156 109 113 124 116 118 122 129 137 142 144 145 150 163 173 172 201 307 305 303 303 308 314 312 310 310 309 308 307
179 181 192 185 214 241 138 156 190 128 124 136 136 135 125 114 114 124 130 134 137 136 141 146 144 140 144 152 161 171 194 269 301 300 303 308 312 311 306 307 308 310 311 312
194 190 179 189 209 54 125 188 106 139 138 133 129 127 128 131 139 141 143 149 156 156 152 153 149 145 147 150 164 195 178 276 295 300 306 309 307 306 305 304 308 311 316 317
175 140 137 157 179 126 126 116 115 122 116 117 120 125 131 136 146 155 161 170 173 169 163 159 160 160 161 159 173 198 210 269 293 302 306 304 303 305 307 306 309 315 318 319
158 159 146 148 143 128 137 136 127 114 111 110 107 109 128 141 156 174 185 189 183 173 170 171 175 174 168 169 186 199 227 276 292 296 295 298 302 305 306 308 311 312 309 312
178 178 180 190 177 166 164 152 141 131 127 129 124 117 102 117 149 162 184 184 180 175 170 171 174 171 167 177 192 206 239 267 281 290 299 305 305 305 308 311 310 304 302 307